www.pogodaiklimat.ru

Погода и климат >> Архив погоды >> Украина >> Коломак


ПОГОДА в Коломаке

  • Прогноз погоды в Коломаке
  • Монитор погоды в Коломаке

АРХИВ ПОГОДЫ в Коломаке

Время (UTC), дата Ветер
(напр.,м/с)
 
Видим.   Явления Облачность Т
(С)
Тd
(С)
f
(%)
Тe
(С)
Тes
(С)
Комфортность P
(гПа)
Po
(гПа)
Тmin
(С)
Tmax
(С)
R
(мм)
R24
(мм)
S
(см)
18 14.07 В 1 10 км 3/1 1000 м
[Cu med, cong Ci fib]
+18.6 +12.3 67 +20 +20 1009.3 988.5 +24.7
21 14.07 штиль 0 10 км ясно +15.4 +10.3 72 +15 +15 1009.6 988.5
00 15.07 штиль 0 10 км ясно +13.6 +10.6 82 +13 +13 1009.0 987.8
03 15.07 штиль 0 10 км ясно +13.2 +10.9 86 +13 +14 1008.8 987.6
06 15.07 В 1 10 км 1/0
[Ci fib]
+20.8 +13.3 62 +24 +34 комфорт 1008.4 987.7 +12.5
09 15.07 ЮВ 3 10 км 3/3 600 м
[Cu hum]
+24.7 +9.4 38 +25 +35 комфорт 1007.5 987.1
12 15.07 Ю 2 10 км 6/3 600 м
[Cu med, cong Ci fib]
+26.8 +8.8 32 +27 +35 жарко 1006.9 986.7
15 15.07 З 2 10 км 9/5 600 м
[Cb calv Ac trans Ci fib]
+25.3 +9.6 37 +26 +27 жарко 1006.5 986.2
18 15.07 штиль 0 10 км 9/3 600 м
[Cb calv Ac trans Ci]
+22.0 +13.8 60 +25 +25 комфорт 1007.1 986.6 +27.9
21 15.07 ЮВ 2 10 км {ливн. осадки} 9/9 600 м
[Cb calv]
+19.9 +10.6 55 +22 +22 комфорт 1007.5 986.8
00 16.07 ЮВ 2 10 км {ливн. осадки} 10/10 600 м
[Sc]
+17.9 +13.1 73 +18 +18 1007.1 986.3
03 16.07 ЮВ 1 10 км слаб. ливневой дождь {гроза} 10/10 600 м
[Cb cap]
+16.9 +14.5 86 +18 +18 1006.8 985.9
06 16.07 С 2 10 км в посл. час ливневой дождь {гроза} 10/10 600 м
[Cb calv]
+18.4 +15.7 84 +20 +20 1007.2 986.4 +16.6 1
09 16.07 СВ 2 10 км 9/6 600 м
[Cb calv Ac cast Ci fib]
+22.5 +15.2 63 +26 +30 жарко 1006.8 986.3
12 16.07 С 2 10 км гроза без осадков 9/5 600 м
[Cb cap Ac trans Ci fib]
+25.7 +13.1 46 +28 +32 жарко 1005.8 985.5
15 16.07 В 3 10 км слаб. ливневой дождь {гроза} 9/8 600 м
[Cb cap Ac trans]
+20.0 +14.9 72 +23 +23 комфорт 1006.4 985.7
18 16.07 С 1 10 км {гроза, ливн. осадки} 10/0
[Ac und]
+17.1 +14.9 87 +18 +18 1007.4 986.5 +26.0 0.0
21 16.07 С 1 10 км 10/0
[Cs]
+15.2 +14.1 93 +16 +16 1007.2 986.2
00 17.07 СЗ 1 4000 м дымка 10/10 600 м
[St]
+14.6 +14.1 97 +15 +15 1007.5 986.4
03 17.07 СЗ 1 200 м туман ?/? +12.8 +12.8 100 +13 +13 1007.1 985.9
06 17.07 СЗ 2 10 км {туман} 3/1 600 м
[Cu hum Cc]
+19.4 +14.6 74 +22 +29 комфорт 1006.6 985.9 +12.8
09 17.07 СЗ 4 10 км 6/6 600 м
[Cb calv]
+23.2 +12.4 51 +26 +31 жарко 1006.0 985.6
12 17.07 З 4 10 км 5/5 600 м
[Cb calv]
+25.9 +9.5 36 +27 +31 жарко 1005.5 985.3
15 17.07 СЗ 6 10 км 1/1 1000 м
[Cu med, cong]
+24.8 +9.6 38 +26 +27 жарко 1005.4 985.1
18 17.07 З 1 10 км 1/1 1000 м
[Cu med, cong]
+19.6 +12.3 63 +22 +22 комфорт 1006.8 986.1 +26.6
21 17.07 штиль 0 10 км 3/0
[Ac trans]
+16.0 +12.0 77 +16 +16 1007.5 986.5
00 18.07 Ю 1 10 км 6/0
[Ac trans Ci fib]
+14.0 +11.8 87 +14 +14 1007.1 986.0
03 18.07 Ю 1 10 км ясно +13.0 +11.5 91 +13 +14 1008.0 986.8
06 18.07 З 5 10 км ясно +18.4 +11.1 62 +18 +23 1008.2 987.4 +13.0
09 18.07 З 4 10 км 8/8 600 м
[Cu med, cong]
+20.3 +9.7 51 +22 +24 комфорт 1008.8 988.1
12 18.07 З 4 10 км 8/8 600 м
[Cu med, cong]
+21.7 +8.0 41 +23 +24 комфорт 1009.1 988.5
15 18.07 З 4 10 км 4/4 600 м
[Cu med, cong]
+22.8 +8.4 40 +24 +25 комфорт 1009.7 989.2
18 18.07 З 2 10 км 1/0
[Ac trans]
+17.8 +9.9 60 +18 +18 1011.3 990.4 +24.1
21 18.07 З 1 10 км ясно +14.4 +10.2 76 +15 +15 1012.4 991.2
00 19.07 З 2 10 км ясно +13.0 +9.5 79 +12 +12 1013.2 991.9
03 19.07 З 1 10 км ясно +12.7 +10.0 84 +13 +13 1014.2 992.8
06 19.07 З 3 10 км 1/0
[Ci fib]
+19.4 +12.3 63 +21 +28 комфорт 1014.4 993.5 +12.4
09 19.07 З 5 10 км 8/6 600 м
[Cu med, cong Ci fib]
+23.6 +12.0 48 +25 +28 комфорт 1014.4 993.8
12 19.07 З 5 10 км 9/4 600 м
[Cu med, cong Cs]
+23.4 +11.3 47 +26 +29 жарко 1014.5 993.9
15 19.07 З 5 10 км 8/3 600 м
[Cu med, cong Cc]
+24.4 +10.4 41 +25 +26 комфорт 1014.4 993.9
18 19.07 штиль 0 10 км 3/3 600 м
[Sc]
+20.0 +12.8 63 +22 +22 комфорт 1015.8 994.9 +25.3
00 20.07 З 1 10 км ясно +14.9 +11.2 79 +15 +15 1017.6 996.3
12 20.07 З 4 10 км 8/8 600 м
[Cu med, cong]
+27.2 +6.3 26 +26 +28 жарко 1018.2 997.8
18 20.07 штиль 0 10 км 1/0
[Ci fib]
+20.8 +12.3 58 +23 +23 комфорт 1018.4 997.5 +28.6
00 21.07 ЮЗ 1 10 км ясно +15.4 +10.9 75 +16 +16 1019.3 998.0
06 21.07 штиль 0 10 км {ливн. осадки} 9/4 600 м
[Cb calv Ac trans]
+20.4 +13.8 66 +22 +26 комфорт 1019.2 998.3 +14.0 0.0

 

Местоположение метеостанции Коломак (Харьковская область, Украина): широта 49.85 долгота 35.23 высота над уровнем моря 178 м.

В архиве по умолчанию представлена погода в Коломаке за последнюю неделю. Архивные данные за месяц целиком и за предыдущие месяцы, начиная с января 2011 года, Вы можете получить, выбрав интересующий диапазон дат из раскрывающегося списка и нажав кнопку "Ввод!".


*Определитесь, кто Вы:
робот инопланетянин человек

Внимание! Время в таблицах - всемирное. Для получения местного времени необходимо прибавить поправку, которая равна 2 ч.

Смотрите также архив погоды в соседних городах и на ближайших метеорологических станциях:

Погода в Боходухове (Харьковская область, Украина) (44 км)
Погода в Краснограде (Харьковская область, Украина) (55 км)
Погода в Полтаве (Полтавская область, Украина) (56 км)
Погода в Харькове (Харьковская область, Украина) (66 км)
Погода в Золочеве (Львовская область, Украина) (72 км)
Погода в Лебедине (Сумская область, Украина) (97 км)
Погода в Комсомольском (Донецкая область, Украина) (98 км)
Погода в Гадяче (Полтавская область, Украина) (106 км)
Погода в Кобеляках (Полтавская область, Украина) (108 км)
Погода в Готне (Белгородская область, Россия) (112 км)

Пояснения к столбцам:

Ветер - указаны скорость ветра в м/с - средняя за 10 мин, порывы в срок и между сроками (в фигурных скобках) и направление, откуда дует ветер: С - северный, СВ - северо-восточный, В - восточный, ЮВ - юго-восточный, Ю - южный, ЮЗ - юго-западный, З - западный, СЗ - северо-западный.
Видимость - горизонтальная дальность видимости в метрах или километрах. При видимости от 1 до 10 км при отсутствии осадков обычно наблюдается дымка, при ухудшении видимости до 1 км и менее - туман. В сухую погоду видимость может ухудшаться дымом, пылью или мглою.
Явления - указаны атмосферные явления, наблюдавшиеся в срок или в последний час перед сроком; фигурными скобками обозначены явления, наблюдавшиеся между сроками (за 1-3 часа до срока); квадратными скобками обозначены град или гололедные отложения с указанием их диаметра в мм.
Облачность - указаны через наклонную черту общая и нижняя облачность в баллах и высота нижней границы облаков в метрах; квадратными скобками обозначены формы облаков: Ci - перистые, Cs - перисто-слоистые, Cc - перисто-кучевые, Ac - высококучевые, As - высокослоистые, Sc - слоисто-кучевые, Ns - слоисто-дождевые, Cu - кучевые, Cb - кучево-дождевые. Подробнее классификацию облаков см. в Атласе облаков (PDF).
T - Температура воздуха - температура, измеренная на высоте 2 м над землей.
Td - Температура точки росы - температура, при понижении до которой содержащийся в воздухе водяной пар достигнет насыщения.
f - Относительная влажность воздуха - влажноcть воздуха, измеренная на высоте 2 м над землей.
Te - Эффективная температура - температура, которую ощущает одетый по сезону человек в тени. Характеристика душности погоды. При расчете учитывается влияние влажности воздуха и скорости ветра на теплоощущения человека.
Tes - Эффективная температура на солнце - температура, которую ощущает человек, с поправкой на солнечный нагрев. Характеристика знойности погоды. Зависит от высоты солнца над горизонтом, облачности и скорости ветра. Ночью, в пасмурную погоду, а также при ветре 12 м/с и более поправка равна нулю.
P - Атмосферное давление - приведенное к уровню моря атмосферное давление.
Po - Атмосферное давление - измеренное на уровне метеостанции атмосферное давление.
Tmin - Минимальная температура - минимум температуры воздуха на высоте 2 м над землей.
Tmax - Максимальная температура - максимум температуры воздуха на высоте 2 м над землей.
R - Количество осадков - Количество выпавших осадков за период времени, мм. При наведении курсора мыши на число - период времени, за который выпало указанное количество осадков.
R24 - Количество осадков - Количество выпавших осадков за 24 часа, мм.
S - Снежный покров - Высота снежного покрова, см. При наведении курсора мыши на число - состояние снежного покрова и степень покрытия местности в баллах.